COSMOS 2251 DEB, 33942

Orbit data source: Space-Track

COSMOS 2251 DEB, 33942 is space debris in LEO originally from a launch on Wed, 16 Jun 1993 UTC launched from the Plesetsk Missile And Space Complex (PKMTR). The debris from Iridium 33, an American commercial communications satellite, has been tracked extensively since its accidental collision with the defunct Russian satellite Cosmos 2251 in 2009. This event, occurring at high speed in low Earth orbit (LEO), generated thousands of pieces of space debris, significantly increasing the risk of further collisions. The Iridium 33 debris cloud has impacted space traffic management and orbital debris mitigation strategies, making it a subject of ongoing study in space situational awareness.

Loading next visibility...
Identifier
33942, 1993-036EX
Orbit
LEO
Country
Flag of CISCIS
Related business
Manufacturer
Unknown
Mission
Spacecraft
Bus & Motor
Unknown
Mass
Unknown
Launch date (UTC)
1993-06-16 (32 years ago)
Launch vehicle
Unknown
Launch site
Plesetsk Missile And Space Complex (PKMTR)
Object type
Payload
Rocket body
Debris
Shape & HBR
Unknown shape, 0.3 m
Radar Cross Section
Medium (>0.1 m² and <1 m²)

Expand to show TLE details & history
Last TLE update: 7 hours ago

TLE from 7 hours ago
0 COSMOS 2251 DEB
1 33942U 93036EX  25292.94631387  .00001051  00000-0  35617-3 0  9995
2 33942  74.0388  13.8922 0019289 115.0674 295.1325 14.37880433873614
Epoch: 2025-10-19T22:42Z
TLE epoch observation values (Epoch: 2025-10-19T22:42:41.518Z)
Latitude
47.54008°
Longitude
22.67698°
Altitude
766.721 km
Speed
7.479 km/s
True Right ascension
02h 08m 01s
True Declination
47° 22' 08"
Sunlit
Object was in full shadow at epoch
Visualization orbit readout
Latitude
Unknown
Longitude
Unknown
Altitude
Unknown
Speed
Unknown
Apparent Right ascension
Unknown
Apparent Declination
Unknown
Sunlit
N/A
Visualization observer readout
Local Sidereal Time
01:01:12
Azimuth
Unknown
Elevation
Unknown
Doppler factor
Unknown
Orbital elements
Apogee altitude
776.907 km
Perigee altitude
749.357 km
Semi-major axis
7,141.269 km
Eccentricity
0.00193
Inclination
74.0388°
RAAN
13.8922°
Arg. of periapsis
115.0674°
True anomaly
294.93219°
Mean anomaly
295.1325°
Eccentric anomaly
295.03236°
Mean motion
3.5965 °/min
Orbital period
100.1 mins
BSTAR
0.00035617
Loading maneuver chart data...
Computing Atmospheric mass density...

Documentation

Showing up to 5 results
|